Tracking 29892 objects as of 21-Nov-2024
HD Live streaming from Space Station
objects crossing your sky now

STARLINK-3875

Track STARLINK-3875 now!
10-day predictions
STARLINK-3875 is classified as:


NORAD ID: 52483
Int'l Code: 2022-049AJ
Perigee: 546.0 km
Apogee: 547.7 km
Inclination: 53.2 °
Period: 95.4 minutes
Semi major axis: 6917 km
RCS: Unknown
Launch date: May 6, 2022
Source: United States (US)
Launch site: AIR FORCE EASTERN TEST RANGE (AFETR)
Your satellite tracking list
Your tracking list is empty




NASA's NSSDC Master Catalog

Two Line Element Set (TLE):
1 52483U 22049AJ  24325.57101296 -.00000424  00000-0 -85342-5 0  9995
2 52483  53.2180  17.5179 0001259  91.0307 269.0830 15.08843400140972
Source of the keplerian elements: AFSPC